FW9075 Weather Reports


time (UTC)temp
C
wind
direction
speed
KPH
gust
KPH
rain 1hr
cm
rain 24hr
cm
rain mn
cm
humidity
%
barometer
mb
20260508005506 9 62 1.6 3.2 0.00 0.00 0.00 89 1014.4
20260508005006 9 0 0.0 3.2 0.00 0.00 0.00 89 1014.5
20260508004506 9 66 1.6 3.2 0.00 0.00 0.00 89 1014.6
20260508004006 9 66 1.6 3.2 0.00 0.00 0.00 89 1014.6
20260508003506 9 66 1.6 3.2 0.00 0.00 0.00 89 1014.6
20260508003006 9 0 0.0 3.2 0.00 0.00 0.00 89 1014.6
20260508002506 9 0 0.0 3.2 0.00 0.00 0.00 89 1014.7
20260508002005 9 0 0.0 1.6 0.00 0.00 0.00 88 1014.7
20260508001506 9 0 0.0 3.2 0.00 0.00 0.00 89 1014.6
20260508000506 9 0 0.0 3.2 0.00 0.00 0.00 88 1014.6
20260507235506 9 68 1.6 3.2 0.00 0.00 0.00 88 1014.6
20260507235005 9 0 0.0 3.2 0.00 0.00 0.00 88 1014.7
20260507234506 9 0 0.0 1.6 0.00 0.00 0.00 88 1014.7
20260507233506 9 0 0.0 1.6 0.00 0.00 0.00 87 1014.7
20260507232506 9 70 1.6 3.2 0.00 0.00 0.00 87 1014.7
20260507231506 10 0 0.0 1.6 0.00 0.00 0.00 87 1014.8
20260507231006 10 0 0.0 1.6 0.00 0.00 0.00 87 1014.8
20260507230505 10 0 0.0 1.6 0.00 0.00 0.00 87 1014.9
20260507225506 10 0 0.0 1.6 0.00 0.00 0.00 86 1014.9
20260507225006 10 0 0.0 1.6 0.00 0.00 0.00 86 1014.9
20260507224505 10 0 0.0 1.6 0.00 0.00 0.00 86 1014.9
20260507224006 10 0 0.0 3.2 0.00 0.00 0.00 86 1015.0
20260507223506 10 69 1.6 3.2 0.00 0.00 0.00 86 1015.1
20260507223006 10 80 1.6 4.8 0.00 0.00 0.00 86 1015.1
20260507222506 10 0 0.0 4.8 0.00 0.00 0.00 85 1015.0
20260507222006 10 0 0.0 3.2 0.00 0.00 0.00 85 1015.0
20260507221506 10 0 0.0 3.2 0.00 0.00 0.00 85 1015.0
20260507221006 10 0 0.0 3.2 0.00 0.00 0.00 85 1015.1
20260507220505 10 0 0.0 3.2 0.00 0.00 0.00 84 1015.1
20260507220006 10 195 1.6 4.8 0.00 0.00 0.00 84 1015.1
20260507215505 10 195 1.6 4.8 0.00 0.00 0.00 84 1015.2
20260507215006 10 179 1.6 4.8 0.00 0.00 0.00 84 1015.2
20260507214506 10 172 1.6 4.8 0.00 0.00 0.00 84 1015.2
20260507214006 10 154 1.6 9.7 0.00 0.00 0.00 84 1015.2
20260507213506 10 142 3.2 9.7 0.00 0.00 0.00 83 1015.1
20260507213006 10 127 3.2 9.7 0.00 0.00 0.00 83 1015.1
20260507212506 10 122 3.2 9.7 0.00 0.00 0.00 83 1015.1
20260507211006 10 136 1.6 11.3 0.00 0.00 0.00 82 1015.0
20260507210506 10 142 1.6 11.3 0.00 0.00 0.00 81 1014.9
20260507210006 10 0 0.0 3.2 0.00 0.00 0.00 80 1014.9
20260507205505 10 0 0.0 3.2 0.00 0.00 0.00 79 1014.9
20260507205006 10 158 1.6 3.2 0.00 0.00 0.00 78 1014.9
20260507204506 10 131 1.6 9.7 0.00 0.00 0.00 77 1014.9
20260507204006 10 127 1.6 9.7 0.00 0.00 0.00 76 1014.8
20260507203505 10 136 1.6 8.0 0.00 0.00 0.00 76 1014.7
20260507203006 10 133 1.6 8.0 0.00 0.00 0.00 75 1014.6
20260507202006 10 93 1.6 8.0 0.00 0.00 0.00 75 1014.5
20260507201506 10 83 1.6 8.0 0.00 0.00 0.00 76 1014.5
20260507201006 10 77 1.6 8.0 0.00 0.00 0.00 75 1014.5
20260507200506 10 72 1.6 4.8 0.00 0.00 0.00 75 1014.3
20260507195506 10 0 0.0 4.8 0.00 0.00 0.00 74 1014.4
20260507195006 11 0 0.0 1.6 0.00 0.00 0.00 72 1014.5
20260507194006 11 0 0.0 1.6 0.00 0.00 0.00 71 1014.4
20260507193506 11 0 0.0 1.6 0.00 0.00 0.00 70 1014.3
20260507193006 12 0 0.0 1.6 0.00 0.00 0.00 69 1014.3
20260507192506 12 0 0.0 1.6 0.00 0.00 0.00 69 1014.2
20260507192006 12 224 1.6 3.2 0.00 0.00 0.00 68 1014.2
20260507191506 12 206 1.6 3.2 0.00 0.00 0.00 67 1014.2
20260507191006 12 162 1.6 3.2 0.00 0.00 0.00 66 1014.2
20260507190505 13 182 3.2 9.7 0.00 0.00 0.00 65 1014.1
20260507190006 13 200 3.2 9.7 0.00 0.00 0.00 63 1014.1
20260507185506 13 200 3.2 9.7 0.00 0.00 0.00 61 1014.0
20260507184505 14 199 3.2 9.7 0.00 0.00 0.00 58 1014.0
20260507184005 14 196 3.2 11.3 0.00 0.00 0.00 56 1013.9
20260507183506 14 188 3.2 11.3 0.00 0.00 0.00 54 1013.9
20260507183006 15 194 3.2 9.7 0.00 0.00 0.00 51 1013.9
20260507182006 15 186 1.6 8.0 0.00 0.00 0.00 48 1013.8
20260507181506 15 197 1.6 8.0 0.00 0.00 0.00 47 1013.8
20260507181006 16 187 3.2 9.7 0.00 0.00 0.00 46 1013.8
20260507180506 16 187 3.2 9.7 0.00 0.00 0.00 46 1013.7
20260507175506 16 177 3.2 9.7 0.00 0.00 0.00 43 1013.8
20260507175006 17 182 3.2 9.7 0.00 0.00 0.00 43 1013.8
20260507174506 17 185 6.4 12.9 0.00 0.00 0.00 45 1013.8
20260507173506 17 189 6.4 11.3 0.00 0.00 0.00 42 1013.7
20260507173006 17 191 3.2 11.3 0.00 0.00 0.00 45 1013.7
20260507172506 17 196 3.2 12.9 0.00 0.00 0.00 45 1013.7
20260507172006 17 203 6.4 12.9 0.00 0.00 0.00 44 1013.7
20260507171506 17 218 6.4 12.9 0.00 0.00 0.00 45 1013.7
20260507171006 17 209 8.0 14.5 0.00 0.00 0.00 44 1013.7
20260507170506 17 208 8.0 17.7 0.00 0.00 0.00 43 1013.7
20260507165506 17 221 8.0 16.1 0.00 0.00 0.00 42 1013.8
20260507165006 17 200 8.0 16.1 0.00 0.00 0.00 43 1013.8
20260507164505 17 202 8.0 16.1 0.00 0.00 0.00 42 1013.8
20260507164006 17 216 8.0 17.7 0.00 0.00 0.00 42 1013.8
20260507163506 17 225 8.0 20.9 0.00 0.00 0.00 42 1013.8
20260507163006 17 209 8.0 20.9 0.00 0.00 0.00 42 1013.9
20260507162505 17 195 8.0 17.7 0.00 0.00 0.00 41 1013.9
20260507161506 17 222 9.7 17.7 0.00 0.00 0.00 42 1014.0
20260507161005 17 224 9.7 17.7 0.00 0.00 0.00 42 1014.0
20260507160506 18 222 8.0 16.1 0.00 0.00 0.00 42 1013.9
20260507160006 18 215 8.0 16.1 0.00 0.00 0.00 42 1014.0
20260507155006 18 185 8.0 17.7 0.00 0.00 0.00 42 1014.0
20260507154506 18 175 8.0 17.7 0.00 0.00 0.00 44 1013.9
20260507154008 17 189 9.7 20.9 0.00 0.00 0.00 42 1014.0
20260507153506 17 190 8.0 20.9 0.00 0.00 0.00 43 1014.0
20260507153006 17 182 8.0 17.7 0.00 0.00 0.00 44 1014.1
20260507152506 18 187 8.0 17.7 0.00 0.00 0.00 45 1014.1
20260507152006 17 213 8.0 14.5 0.00 0.00 0.00 44 1014.1
20260507151506 17 211 9.7 20.9 0.00 0.00 0.00 44 1014.2
20260507151006 17 211 9.7 20.9 0.00 0.00 0.00 44 1014.2
20260507150505 17 220 8.0 17.7 0.00 0.00 0.00 45 1014.2
20260507145506 17 200 8.0 20.9 0.00 0.00 0.00 47 1014.2
20260507145006 16 179 6.4 12.9 0.00 0.00 0.00 49 1014.2
20260507144506 16 103 3.2 11.3 0.00 0.00 0.00 63 1014.2
20260507144006 16 118 3.2 11.3 0.00 0.00 0.00 68 1014.2
20260507142006 15 85 3.2 12.9 0.00 0.00 0.00 71 1014.4
20260507141505 15 83 3.2 12.9 0.00 0.00 0.00 71 1014.5
20260507141007 15 90 3.2 11.3 0.00 0.00 0.00 71 1014.6
20260507140506 15 85 3.2 11.3 0.00 0.00 0.00 73 1014.6
20260507140006 14 81 3.2 11.3 0.00 0.00 0.00 78 1014.6
20260507135506 13 85 3.2 12.9 0.00 0.00 0.00 79 1014.6
20260507135006 13 89 6.4 14.5 0.00 0.00 0.00 80 1014.6
20260507134505 13 84 6.4 14.5 0.00 0.00 0.00 80 1014.7
20260507134006 12 79 3.2 11.3 0.00 0.00 0.00 81 1014.6
20260507133506 12 83 6.4 12.9 0.00 0.00 0.00 81 1014.6
20260507133006 12 74 6.4 12.9 0.00 0.00 0.00 80 1014.6
20260507132506 12 71 8.0 16.1 0.00 0.00 0.00 81 1014.6
20260507132006 12 79 9.7 17.7 0.00 0.00 0.00 81 1014.7
20260507131006 13 79 9.7 17.7 0.00 0.00 0.00 79 1014.8
20260507130006 13 83 8.0 16.1 0.00 0.00 0.00 76 1014.8
20260507125505 13 97 6.4 16.1 0.00 0.00 0.00 74 1014.7
20260507125006 14 105 3.2 16.1 0.00 0.00 0.00 71 1014.7
20260507124506 15 123 6.4 9.7 0.00 0.00 0.00 66 1014.7
20260507124006 15 134 6.4 12.9 0.00 0.00 0.00 61 1014.7
20260507123506 15 133 3.2 12.9 0.00 0.00 0.00 61 1014.7
20260507123006 15 144 1.6 11.3 0.00 0.00 0.00 63 1014.7
20260507122505 14 157 3.2 9.7 0.00 0.00 0.00 65 1014.7
20260507122006 14 158 6.4 11.3 0.00 0.00 0.00 64 1014.8
20260507121506 14 166 6.4 12.9 0.00 0.00 0.00 64 1014.7
20260507120006 15 171 8.0 16.1 0.00 0.00 0.00 62 1014.7
20260507115506 15 173 8.0 17.7 0.00 0.00 0.00 61 1014.7
20260507115005 15 167 6.4 17.7 0.00 0.00 0.00 57 1014.7
20260507114506 15 165 3.2 14.5 0.00 0.00 0.00 55 1014.7
20260507114006 15 173 3.2 11.3 0.00 0.00 0.00 54 1014.7
20260507113506 15 172 3.2 11.3 0.00 0.00 0.00 56 1014.7
20260507113006 15 175 3.2 11.3 0.00 0.00 0.00 52 1014.7
20260507112506 15 202 3.2 11.3 0.00 0.00 0.00 53 1014.7
20260507111506 16 192 6.4 12.9 0.00 0.00 0.00 53 1014.7
20260507111006 16 184 8.0 12.9 0.00 0.00 0.00 55 1014.7
20260507110006 16 161 6.4 16.1 0.00 0.00 0.00 53 1014.7
20260507105506 16 164 8.0 17.7 0.00 0.00 0.00 53 1014.8
20260507105006 17 173 8.0 17.7 0.00 0.00 0.00 54 1014.8
20260507104506 16 155 6.4 12.9 0.00 0.00 0.00 57 1014.7
20260507104005 16 163 3.2 9.7 0.00 0.00 0.00 59 1014.8
20260507103505 15 192 6.4 11.3 0.00 0.00 0.00 61 1014.8
20260507103006 15 208 6.4 11.3 0.00 0.00 0.00 60 1014.8
20260507102007 15 204 6.4 11.3 0.00 0.00 0.00 63 1014.9
20260507101507 15 211 3.2 11.3 0.00 0.00 0.00 63 1014.9
20260507101006 15 206 3.2 11.3 0.00 0.00 0.00 64 1014.9
20260507100506 15 194 3.2 11.3 0.00 0.00 0.00 61 1014.9
20260507100006 15 209 3.2 11.3 0.00 0.00 0.00 58 1014.9
20260507095506 15 225 3.2 9.7 0.00 0.00 0.00 60 1014.8
20260507095006 15 222 6.4 12.9 0.00 0.00 0.00 62 1014.9
20260507094506 15 203 6.4 12.9 0.00 0.00 0.00 60 1014.9
20260507094006 16 177 6.4 12.9 0.00 0.00 0.00 59 1014.9
20260507093006 15 171 6.4 11.3 0.00 0.00 0.00 59 1014.9
20260507092506 15 163 6.4 14.5 0.00 0.00 0.00 57 1014.9
20260507092006 15 144 6.4 14.5 0.00 0.00 0.00 60 1014.9
20260507091007 15 152 3.2 11.3 0.00 0.00 0.00 65 1014.9
20260507090506 15 140 3.2 12.9 0.00 0.00 0.00 64 1014.9
20260507090006 15 193 3.2 12.9 0.00 0.00 0.00 66 1014.9
20260507085505 15 223 3.2 11.3 0.00 0.00 0.00 69 1015.0
20260507085006 14 199 3.2 11.3 0.00 0.00 0.00 69 1015.0
20260507084506 14 191 6.4 12.9 0.00 0.00 0.00 69 1015.1
20260507084006 14 165 6.4 12.9 0.00 0.00 0.00 69 1015.1
20260507083505 14 141 6.4 11.3 0.00 0.00 0.00 72 1015.0
20260507083006 14 153 6.4 11.3 0.00 0.00 0.00 71 1015.0
20260507082505 14 179 3.2 9.7 0.00 0.00 0.00 72 1015.0
20260507082006 13 175 6.4 12.9 0.00 0.00 0.00 74 1015.0
20260507081505 13 164 3.2 12.9 0.00 0.00 0.00 73 1015.1
20260507081006 13 131 1.6 8.0 0.00 0.00 0.00 75 1015.0
20260507080505 12 105 1.6 4.8 0.00 0.00 0.00 77 1015.1
20260507075505 12 72 1.6 4.8 0.00 0.00 0.00 80 1015.1
20260507075006 11 88 1.6 4.8 0.00 0.00 0.00 81 1015.1
20260507074505 11 102 1.6 4.8 0.00 0.00 0.00 81 1015.1
20260507074005 10 0 0.0 3.2 0.00 0.00 0.00 82 1015.1
20260507073506 10 0 0.0 3.2 0.00 0.00 0.00 82 1015.1
20260507073006 10 67 1.6 4.8 0.00 0.00 0.00 83 1015.1
20260507072505 10 97 1.6 4.8 0.00 0.00 0.00 84 1015.1
20260507072006 10 0 0.0 4.8 0.00 0.00 0.00 85 1015.0
20260507071505 9 0 0.0 4.8 0.00 0.00 0.00 86 1015.0
20260507070506 8 0 0.0 3.2 0.00 0.00 0.00 87 1015.0
20260507070010 8 58 1.6 4.8 0.00 0.00 0.00 88 1015.0
20260507065506 8 32 1.6 8.0 0.00 0.00 0.00 88 1015.0
20260507064506 8 290 1.6 4.8 0.00 0.00 0.00 90 1014.9
20260507064006 8 283 1.6 4.8 0.00 0.00 0.00 90 1014.9
20260507063006 7 251 1.6 4.8 0.00 0.00 0.00 91 1014.9
20260507062506 7 255 1.6 8.0 0.00 0.00 0.00 91 1014.8
20260507062008 7 257 3.2 8.0 0.00 0.00 0.00 92 1014.9
20260507061006 7 339 3.2 11.3 0.00 0.00 0.00 93 1014.8
20260507060006 6 63 6.4 14.5 0.00 0.00 0.00 93 1014.4
20260507055506 6 60 3.2 12.9 0.00 0.00 0.00 93 1014.4
20260507054506 6 48 3.2 9.7 0.00 0.00 0.00 94 1014.5
20260507054006 6 42 1.6 9.7 0.00 0.00 0.00 94 1014.5
20260507053506 6 32 1.6 4.8 0.00 0.00 0.00 94 1014.4
20260507053006 6 33 1.6 4.8 0.00 0.00 0.00 94 1014.5
20260507052505 6 33 1.6 4.8 0.00 0.00 0.00 94 1014.5
20260507052006 6 31 1.6 3.2 0.00 0.00 0.00 94 1014.4
20260507051006 5 18 1.6 4.8 0.00 0.00 0.00 94 1014.4
20260507050506 5 0 0.0 3.2 0.00 0.00 0.00 94 1014.4
20260507045506 5 0 0.0 3.2 0.00 0.00 0.00 94 1014.4
20260507045006 5 0 0.0 3.2 0.00 0.00 0.00 94 1014.4
20260507044505 5 0 0.0 3.2 0.00 0.00 0.00 94 1014.4
20260507044005 5 0 0.0 3.2 0.00 0.00 0.00 94 1014.4
20260507043506 5 0 0.0 1.6 0.00 0.00 0.00 94 1014.4
20260507043006 5 0 0.0 1.6 0.00 0.00 0.00 94 1014.4
20260507042506 5 0 0.0 1.6 0.00 0.00 0.00 94 1014.4
20260507042006 5 0 0.0 3.2 0.00 0.00 0.00 94 1014.4
20260507041006 4 0 0.0 1.6 0.00 0.00 0.00 94 1014.4
20260507040506 4 0 0.0 1.6 0.00 0.00 0.00 94 1014.4
20260507040006 4 0 0.0 1.6 0.00 0.00 0.00 94 1014.4
20260507035506 4 0 0.0 1.6 0.00 0.00 0.00 94 1014.4
20260507035006 4 0 0.0 1.6 0.00 0.00 0.00 94 1014.4
20260507034506 3 0 0.0 1.6 0.00 0.00 0.00 94 1014.4
20260507034005 3 0 0.0 0.0 0.00 0.00 0.00 94 1014.4
20260507033506 3 0 0.0 0.0 0.00 0.00 0.00 94 1014.4
20260507033006 3 0 0.0 3.2 0.00 0.00 0.00 94 1014.3
20260507032506 3 0 0.0 3.2 0.00 0.00 0.00 94 1014.4
20260507032005 3 0 0.0 3.2 0.00 0.00 0.00 94 1014.4
20260507031505 3 0 0.0 3.2 0.00 0.00 0.00 93 1014.3
20260507030506 3 0 0.0 0.0 0.00 0.00 0.00 93 1014.3
20260507030006 3 0 0.0 0.0 0.00 0.00 0.00 93 1014.3
20260507025506 3 0 0.0 1.6 0.00 0.00 0.00 93 1014.3
20260507025006 3 0 0.0 1.6 0.00 0.00 0.00 92 1014.2
20260507024506 3 0 0.0 3.2 0.00 0.00 0.00 92 1014.2
20260507024006 3 0 0.0 3.2 0.00 0.00 0.00 92 1014.2
20260507023506 3 0 0.0 3.2 0.00 0.00 0.00 92 1014.2
20260507023006 3 0 0.0 1.6 0.00 0.00 0.00 92 1014.2
20260507022506 3 0 0.0 1.6 0.00 0.00 0.00 92 1014.2
20260507022006 3 0 0.0 1.6 0.00 0.00 0.00 92 1014.2
20260507021006 3 0 0.0 3.2 0.00 0.00 0.00 92 1014.2
20260507020506 3 53 1.6 3.2 0.00 0.00 0.00 92 1014.2
20260507020006 3 52 1.6 3.2 0.00 0.00 0.00 92 1014.2
20260507015506 3 0 0.0 3.2 0.00 0.00 0.00 91 1014.2
20260507015006 3 0 0.0 3.2 0.00 0.00 0.00 91 1014.2
20260507014506 3 0 0.0 3.2 0.00 0.00 0.00 91 1014.1
20260507014006 3 52 1.6 3.2 0.00 0.00 0.00 91 1014.1
20260507013505 3 0 0.0 3.2 0.00 0.00 0.00 91 1014.1
20260507013005 3 0 0.0 3.2 0.00 0.00 0.00 91 1014.1
20260507012508 3 0 0.0 3.2 0.00 0.00 0.00 91 1014.1
20260507012006 4 53 1.6 3.2 0.00 0.00 0.00 91 1014.1
20260507011506 4 54 1.6 3.2 0.00 0.00 0.00 91 1014.1
20260507010506 4 0 0.0 4.8 0.00 0.00 0.00 90 1014.1